Regional Weather Roundup
Issued by NWS

Home | Current Version | Previous Version | Graphics & Text | Print | Product List | Glossary On
Versions: 1 2 3 4 5 6 7 8 9 10 11 12 13 14 15 16 17 18 19 20 21 22 23 24 25 26 27
000
ASUS45 KBOI 280310
RWRID

IDAHO REGIONAL WEATHER ROUNDUP
NATIONAL WEATHER SERVICE BOISE ID
900 PM MDT SAT AUG 27 2016

NOTE: "FAIR" INDICATES FEW OR NO CLOUDS BELOW 12000 FEET
WITH NO SIGNIFICANT WEATHER AND/OR OBSTRUCTIONS TO VISIBILITY

IDZ012-014-280400-
SOUTHWEST IDAHO


CITY           SKY/WX    TMP DP  RH WIND       PRES   REMARKS
BOISE          CLEAR     84  29  13 CALM      29.84S
CALDWELL       CLEAR     79  44  28 S5        29.82R
MOUNTAIN HOME  CLEAR     81  32  16 E1        29.86R
$$

IDZ016-017-280400-
SOUTHCENTRAL IDAHO


CITY           SKY/WX    TMP DP  RH WIND       PRES   REMARKS
BURLEY         CLEAR     63  48  58 S3        29.96R
JEROME         CLEAR     68  39  34 SE6       29.96R
TWIN FALLS     CLEAR     62  39  42 SE6       29.96R
$$

IDZ019>023-280400-
SOUTHEAST IDAHO


CITY           SKY/WX    TMP DP  RH WIND       PRES   REMARKS
IDAHO FALLS    CLOUDY    71  35  26 S8        29.99R
POCATELLO      CLOUDY    65  32  29 S10       29.99S
REXBURG        CLEAR     70  32  24 S10       29.99R
$$

IDZ006-010-011-018-031-032-280400-
CENTRAL IDAHO MOUNTAINS


CITY           SKY/WX    TMP DP  RH WIND       PRES   REMARKS
MCCALL         PTCLDY    69  31  24 SE5       29.99S
STANLEY          N/A     54  26  34 CALM      30.12R
SALMON         CLEAR     75  36  23 W8        29.85R
CHALLIS        CLOUDY    74  24  15 SW8       29.97R HAZE
$$

IDZ002-004-006-007-026-280400-
NORTHERN IDAHO


CITY           SKY/WX    TMP DP  RH WIND       PRES   REMARKS
LEWISTON       CLOUDY    85  41  21 W12G25    29.75R
LOWELL           N/A     71  52  50 CALM      29.78R
COEUR D`ALENE  CLOUDY    75  45  33 NE10G16   29.74R
MULLAN PASS    MOCLDY    60  36  40 SW10G22   29.96S
$$




USA.gov is the U.S. government's official web portal to all federal, state and local government web resources and services.